Regional Weather Roundup
Issued by NWS Cleveland, OH

Home | Current Version | Previous Version | Text Only | Print | Product List | Glossary Off
Versions: 1 2 3 4 5 6 7 8 9 10 11 12 13 14 15 16 17 18 19 20 21 22 23 24 25 26 27 28 29 30 31 32 33 34 35 36 37 38 39 40 41 42 43 44 45 46 47 48 49 50

000
ASUS41 KCLE 162310
RWRCLE
OHIO REGIONAL WEATHER ROUNDUP
NATIONAL WEATHER SERVICE CLEVELAND, OH
700 PM EDT WED AUG 16 2017

NOTE: "FAIR" INDICATES FEW OR NO CLOUDS BELOW 12,000 FEET WITH NO
SIGNIFICANT WEATHER AND/OR OBSTRUCTIONS TO VISIBILITY.

OHZ001>008-015>018-024>027-034-035-043-044-170000-
   NORTHWEST OHIO

CITY           SKY/WX    TMP DP  RH WIND       PRES   REMARKS
DEFIANCE       PTSUNNY   84  66  54 E8        29.96S
FINDLAY        MOSUNNY   86  65  49 E8        29.96F
TOLEDO EXPRESS SUNNY     82  66  58 E9        29.97S
TOLEDO EXEC    SUNNY     79  63  57 E13       29.99F
LIMA           PTSUNNY   85  69  58 E5        29.97S
$$

OHZ009>014-019>023-028>033-038-089-170000-
   NORTHEAST OHIO

CITY           SKY/WX    TMP DP  RH WIND       PRES   REMARKS
CLE-HOPKINS    MOSUNNY   80  56  43 NE14      30.03F
CLE-LAKEFRONT  SUNNY     76  62  62 NE12      30.00F
CUY CO. ARPT   SUNNY     81  64  57 NE12      30.03F
LORAIN-ELYRIA  SUNNY     78  54  43 E7        30.02F
ASHTABULA      SUNNY     76  56  49 E5        30.05F
AKRON-CANTON   PTSUNNY   83  60  45 E9        30.02F
WOOSTER        PTSUNNY   80  64  58 SE3       30.02F
MANSFIELD      CLOUDY    81  67  62 E7        30.02S
YOUNGSTOWN     MOSUNNY   80  56  43 N7        30.04F
$$

OHZ042-051>053-060>062-070>072-077>081-170000-
  SOUTHWEST OHIO

CITY           SKY/WX    TMP DP  RH WIND       PRES   REMARKS
CINC-COVINGTON PTSUNNY   86  73  65 S12       29.96S HX  93
CINC-LUNKEN    MOSUNNY   87  74  64 S9        29.95S HX  95
HAMILTON       PTSUNNY   90  71  53 VRB3      29.95S HX  96
DAYTON         MOSUNNY   86  65  49 CALM      29.98S
WRIGHT-PAT AFB PTSUNNY   86  67  52 SE3       29.96S
DAYTON GENERAL MOSUNNY   85  68  56 SE8       29.97S
WILMINGTON     SUNNY     84  73  69 SE3       29.98S HX  90
$$

OHZ036-037-039>041-045>050-054>059-063>069-073>076-082>088-170000-
  CENTRAL AND SOUTHEAST OHIO

CITY           SKY/WX    TMP DP  RH WIND       PRES   REMARKS
COLUMBUS       PTSUNNY   84  72  67 E7        29.97S
OSU AIRPORT    SUNNY     86  68  54 W5        29.97S
BOLTON FIELD   SUNNY     86  72  62 SW3       29.99S HX  92
RICKENBACK AFB SUNNY     85  68  56 SW3       29.97S
NEWARK         SUNNY     83  70  64 E7        29.98F
MARION         MOSUNNY   81  69  67 SE7       29.99S
LANCASTER      MOSUNNY   85  68  56 SW5       29.99S
ZANESVILLE     PTSUNNY   85  69  58 E6        30.00S
NEW PHILLY     NOT AVBL
$$




USA.gov is the U.S. government's official web portal to all federal, state and local government web resources and services.